Location: Quedlinburg
(51.7921°N, 11.1414°E)
Time: 07:33:03
(UTC+01:00)

NOAA 18 - Visible Passes

Search period start: 11 March 2026 00:00
Search period end: 21 March 2026 00:00
Orbit: 836 x 858 km, 98.8° (Epoch: 10 March)

Date Brightness Start Highest point End Pass type
(mag) Time Alt. Az. Time Alt. Az. Time Alt. Az.
11 Mar 6.8 20:38:38 19° NE 20:38:38 19° NE 20:42:06 10° N visible
11 Mar 6.4 22:20:33 37° NNW 22:20:33 37° NNW 22:23:45 10° NNW visible
12 Mar 7.8 00:02:27 12° NW 00:02:27 12° NW 00:03:08 10° NW visible
12 Mar 6.9 20:25:21 16° NE 20:25:32 16° NE 20:28:45 10° NNE visible
12 Mar 6.2 22:07:16 40° N 22:07:16 40° N 22:10:43 10° NNW visible
12 Mar 7.6 23:49:10 15° NW 23:49:10 15° NW 23:50:34 10° NW visible
13 Mar 7.1 20:12:04 13° NE 20:12:45 13° NE 20:15:16 10° NNE visible
13 Mar 6.1 21:53:59 41° NNE 21:53:59 41° NNE 21:57:40 10° N visible
13 Mar 7.4 23:35:53 19° NW 23:35:53 19° NW 23:37:51 10° NW visible
14 Mar 7.2 19:58:48 10° ENE 19:59:58 11° NE 20:01:31 10° NNE visible
14 Mar 6.1 21:40:42 39° NNE 21:40:42 39° NNE 21:44:34 10° N visible
14 Mar 7.2 23:22:37 23° NW 23:22:37 23° NW 23:25:03 10° NNW visible
15 Mar 6.1 21:27:26 35° NE 21:27:26 35° NE 21:31:26 10° N visible
15 Mar 6.9 23:09:20 28° NW 23:09:20 28° NW 23:12:12 10° NNW visible
16 Mar 6.2 21:14:09 31° NE 21:14:09 31° NE 21:18:17 10° N visible
16 Mar 6.6 22:56:04 33° NW 22:56:04 33° NW 22:59:17 10° NNW visible
17 Mar 6.4 21:00:52 26° NE 21:00:52 26° NE 21:05:06 10° N visible
17 Mar 6.3 22:42:47 40° NW 22:42:47 40° NW 22:46:20 10° NNW visible
18 Mar 6.6 20:47:35 22° ENE 20:47:49 22° NE 20:51:53 10° N visible
18 Mar 6.0 22:29:30 47° NNW 22:29:30 47° NNW 22:33:21 10° NNW visible
19 Mar 7.7 00:11:25 12° WNW 00:11:25 12° WNW 00:12:16 10° NW visible
19 Mar 6.8 20:34:19 18° ENE 20:34:59 18° NE 20:38:36 10° N visible
19 Mar 5.8 22:16:13 53° N 22:16:13 53° N 22:20:20 10° NNW visible
19 Mar 7.5 23:58:08 15° WNW 23:58:08 15° WNW 23:59:51 10° NW visible
20 Mar 7.0 20:21:02 15° ENE 20:22:10 15° NE 20:25:14 10° NNE visible
20 Mar 5.6 22:02:57 54° NNE 22:02:57 54° NNE 22:07:17 10° NNW visible
20 Mar 7.3 23:44:51 19° WNW 23:44:51 19° WNW 23:47:14 10° NW visible
